Temperature
12 12 12 12 12 12 12 12 12 12 12 12 12 12 11 11 12 11 11 11 11 11 11 11 11 11 11 11 11 11 11 11 11 11 11 11 11 11 11 10 10 10 10
11 11 11 11 11 11 11 12 11 11 11 11 11 11 11 11 11 11 11 11 11 11 11 11 11 11 11 11 11 11 11 11 11 11 11 11 11 11 10 10 10 10 10
11 11 11 11 11 11 11 11 11 11 11 11 11 11 11 11 11 11 11 11 11 11 11 11 11 11 11 11 11 11 11 11 11 10 10 10 10 10 10 10 10 10 9
10 10 10 10 11 11 11 11 11 11 11 11 10 10 10 10 10 10 10 10 10 10 11 11 11 11 10 10 10 11 11 10 10 10 10 10 10 10 10 10 9 9 9
10 10 10 10 10 10 10 10 10 10 10 10 10 10 10 10 10 10 10 10 10 10 10 10 10 10 10 10 10 10 10 10 10 10 10 10 10 10 9 9 9 9 9
10 10 10 10 10 10 10 10 10 10 10 10 10 10 10 10 10 10 10 10 10 10 10 10 10 10 10 10 10 10 10 10 10 10 9 9 9 9 9 9 8 8 8
9 9 9 9 9 9 10 10 9 9 9 9 9 9 9 9 9 9 9 9 9 9 9 9 10 10 10 10 10 10 9 9 9 9 9 9 9 9 8 8 8 8 8
9 9 9 9 9 9 9 9 9 9 9 9 8 8 8 8 8 9 9 9 9 9 9 9 9 9 9 9 9 9 9 9 9 9 9 9 8 8 8 8 8 8 8
8 8 8 8 8 8 8 8 8 8 8 8 8 8 8 8 7 8 8 8 8 8 8 9 9 9 9 9 9 9 9 9 9 8 8 8 8 8 7 7 7 7 7
8 8 8 8 8 8 8 8 8 8 8 8 8 8 8 8 8 7 7 7 8 8 8 8 8 8 8 8 9 9 8 8 8 8 8 8 8 7 7 7 7 7 7
8 8 8 8 7 7 7 7 7 7 7 8 8 8 8 8 8 8 7 7 7 7 7 7 8 8 8 8 8 8 8 8 8 8 8 7 7 7 7 7 7 6 6
7 7 7 7 7 7 7 7 7 7 7 7 7 7 7 7 7 7 7 7 7 7 7 7 7 7 7 8 8 8 8 8 7 7 7 7 7 7 7 7 6 6 6
7 7 7 7 7 7 7 7 7 7 7 7 7 7 7 7 7 7 7 7 6 6 6 7 7 7 7 7 7 7 7 7 7 7 7 7 7 7 7 6 6 6 6
7 6 6 6 6 6 6 7 7 7 6 6 6 6 6 7 7 7 7 6 6 6 6 6 6 7 7 7 7 7 7 7 7 7 7 6 6 6 6 6 6 6 6
6 6 6 6 6 6 6 6 6 6 6 6 6 6 6 6 6 6 6 6 6 5 5 6 6 6 6 6 6 6 6 6 6 6 6 6 6 6 6 6 6 5 5
6 6 6 6 6 6 6 6 6 6 6 6 6 6 5 5 6 6 6 6 6 5 5 5 5 6 6 6 6 6 6 6 6 6 6 6 6 6 5 5 5 5 5
5 5 5 5 5 5 5 5 5 5 5 5 5 5 5 5 5 5 5 5 5 5 5 5 5 5 5 5 5 5 5 5 5 5 5 5 5 5 5 5 5 5 4
5 5 5 5 5 5 5 5 5 5 5 5 5 5 5 5 5 5 5 5 5 5 5 4 4 4 5 5 4 4 4 4 5 5 5 5 4 4 4 4 4 4 4
4 4 4 4 4 4 4 4 4 4 4 4 4 4 4 4 4 4 4 4 4 4 4 4 4 4 4 4 4 4 4 4 4 4 4 4 4 4 4 3 4 4 3
4 4 4 4 4 4 4 4 4 4 4 4 4 4 4 4 4 4 4 4 4 4 4 4 3 3 3 3 3 3 3 3 3 3 3 3 3 3 3 3 3 3 3
4 4 4 4 4 4 4 4 4 4 3 3 4 3 4 3 3 3 3 3 3 3 3 3 3 3 3 3 2 2 2 2 2 2 3 3 3 2 2 2 2 2 2
3 3 3 3 3 3 3 3 3 3 3 3 3 3 3 3 3 3 3 3 3 3 3 2 2 2 2 2 2 2 2 2 2 2 2 2 2 2 2 2 2 1 1
3 3 3 3 3 3 3 3 3 3 3 3 2 2 2 2 2 2 2 2 2 2 2 2 2 2 2 2 2 1 1 1 1 1 1 1 1 1 1 1 1 0 0
2 2 2 2 2 2 2 2 2 2 2 2 2 2 2 2 2 2 2 2 1 1 1 1 1 1 1 1 1 1 1 1 1 0 0 0 1 0 0 0 0 -0 -0
2 2 2 2 2 2 2 2 2 2 2 2 1 1 1 1 1 1 1 1 1 1 1 1 1 1 1 1 0 0 -0 -0 -0 -0 -0 -0 -0 -0 -0 -0 -0 -1 -1
1 1 1 1 1 1 1 1 1 1 1 1 1 1 1 1 1 1 1 1 1 1 1 0 0 0 0 0 -0 -0 -0 -1 -1 -1 -1 -1 -1 -1 -1 -1 -1 -1 -2
Wind_Speed
1 1 1 2 3 4 4 4 3 4 4 4 5 5 4 5 7 8 7 8 8 8 8 8 8 8 8 8 7 7 7 8 8 8 8 8 8 8 8 8 8 8 8
1 2 1 2 2 3 4 4 3 3 3 2 2 3 4 5 6 8 8 8 8 7 7 8 7 8 8 8 7 7 7 7 7 7 8 8 7 7 7 7 7 7 6
2 1 2 2 2 3 3 3 4 3 3 3 2 2 3 4 6 7 8 7 7 6 6 6 6 7 8 8 8 7 7 7 7 7 7 7 7 6 6 6 6 5 5
3 2 2 2 2 3 2 2 3 3 3 3 2 2 2 3 4 6 7 7 7 6 6 5 5 5 6 7 8 7 7 7 7 6 6 6 6 6 5 5 4 3 3
3 2 2 2 3 2 2 2 2 3 3 3 3 2 2 2 3 4 5 6 7 7 6 5 5 4 5 6 6 6 7 7 7 6 6 6 5 5 5 4 3 3 3
3 2 1 2 2 2 2 2 2 2 3 3 3 3 2 2 2 2 4 5 6 7 7 6 6 4 4 4 5 6 6 6 6 6 6 5 5 5 4 4 4 3 3
3 3 2 2 1 2 3 4 3 4 3 3 3 2 2 2 2 1 2 3 4 6 6 6 6 5 4 4 4 5 6 6 6 5 6 5 5 5 4 4 4 3 3
3 3 3 2 2 2 3 4 4 3 2 2 2 2 1 1 1 1 0 1 2 4 4 5 6 6 5 5 4 6 6 7 7 6 5 5 4 5 4 4 4 4 3
3 3 4 3 2 3 4 4 4 3 4 2 2 3 3 3 1 1 1 1 1 1 2 3 4 5 6 6 6 6 7 7 7 7 6 6 4 4 4 5 5 4 4
3 4 4 4 3 3 4 4 3 3 5 4 2 1 1 2 2 1 1 1 2 2 2 2 3 4 5 6 7 6 7 8 8 8 6 6 6 5 5 5 5 5 5
2 3 4 4 3 3 4 4 4 4 4 4 3 2 0 0 1 2 2 2 1 2 2 2 3 4 5 6 7 7 7 7 8 8 7 7 6 6 6 5 5 5 5
2 3 3 4 3 3 3 4 4 5 4 4 3 3 2 2 2 2 2 2 2 2 2 2 2 4 5 6 6 6 7 7 8 9 8 8 7 7 7 7 7 6 6
2 3 3 3 3 3 3 4 4 4 4 5 4 3 2 2 2 2 2 2 1 1 1 2 2 4 5 6 6 7 7 8 8 9 9 9 8 8 7 8 8 8 7
3 3 3 3 3 4 4 4 4 4 4 4 4 3 2 2 2 3 3 3 1 1 2 3 2 4 5 6 6 7 7 8 8 8 9 9 9 8 8 8 8 8 8
2 2 2 3 3 3 4 4 4 4 4 4 4 4 3 3 2 2 3 4 4 3 4 3 2 2 4 5 6 7 7 7 8 8 8 8 8 8 8 8 8 8 8
3 3 3 3 3 3 3 3 3 4 4 4 3 4 3 2 3 2 3 2 3 3 3 2 2 2 3 4 6 7 7 7 8 8 8 8 9 9 9 9 8 8 8
3 4 4 4 4 4 4 4 5 5 6 5 5 5 5 4 3 3 3 3 2 2 2 2 1 1 2 2 3 5 6 6 7 8 8 8 9 9 10 10 9 9 9
3 3 3 4 4 4 4 5 5 5 6 6 5 5 5 4 4 4 3 3 3 2 3 3 2 1 2 2 3 3 4 5 6 8 9 9 9 9 9 10 10 9 9
3 3 4 4 4 4 4 4 5 5 5 5 5 5 5 5 5 3 4 3 3 2 2 3 2 1 1 1 1 2 2 2 4 6 7 8 8 8 9 9 10 9 8
3 3 4 4 4 4 4 4 4 4 4 4 4 4 5 6 6 5 4 4 3 3 3 3 2 2 1 1 1 2 2 2 3 3 5 6 7 8 9 9 9 8 8
3 3 3 3 3 3 4 4 4 4 4 3 3 3 3 5 6 5 5 5 5 4 4 4 3 2 2 2 3 2 2 2 3 2 2 3 4 5 6 8 8 8 8
2 2 3 3 3 2 3 4 3 3 3 3 3 2 2 3 5 5 5 5 6 6 5 4 4 4 4 4 3 3 2 2 3 2 1 3 3 3 5 6 7 8 7
3 2 2 3 3 3 4 4 3 3 3 4 4 3 2 3 3 3 3 3 3 5 6 5 5 5 4 5 4 4 3 3 4 3 1 3 2 3 4 5 7 7 7
2 2 2 2 2 2 3 3 2 2 3 3 3 3 3 3 3 4 3 2 2 2 3 3 4 3 3 4 4 4 4 2 1 1 1 3 2 2 2 4 5 6 6
2 2 2 2 2 2 2 2 2 2 2 2 2 2 3 3 4 4 4 3 2 1 1 3 3 2 2 3 4 2 2 1 2 3 1 2 2 1 1 2 4 5 5
2 2 2 2 2 2 3 2 2 2 2 1 1 1 2 3 4 4 3 4 3 2 2 1 1 0 1 1 2 3 4 3 2 3 2 2 1 0 1 1 1 2 4
Wind_Direction
148 130 136 150 168 162 154 156 165 154 150 155 169 154 138 130 122 118 121 130 137 147 155 155 153 151 148 143 139 138 136 131 131 127 123 119 115 111 107 99 92 86 80
137 149 147 153 159 163 162 163 162 145 139 129 131 128 129 130 129 125 123 126 133 140 150 159 160 161 160 158 153 146 140 137 135 135 130 125 120 116 112 107 99 90 83
142 145 161 161 141 152 157 154 143 130 133 121 121 111 114 120 119 126 131 132 132 134 143 154 165 168 169 166 164 156 148 145 144 141 136 132 130 126 123 115 106 97 86
155 146 158 160 139 134 129 151 151 139 135 125 117 105 87 101 113 120 127 132 134 132 132 139 148 162 174 173 168 164 161 156 154 154 149 144 142 138 134 126 118 108 95
153 131 154 143 136 132 144 157 148 142 135 120 103 81 66 79 98 116 120 123 125 124 126 126 129 143 170 174 172 173 172 168 167 165 162 155 154 151 147 145 142 132 114
149 126 136 137 132 152 152 145 141 116 128 129 104 75 52 47 60 95 122 123 128 132 136 137 133 135 142 159 177 181 177 174 175 176 170 168 169 168 171 169 160 151 137
150 129 136 147 150 168 162 144 135 123 111 110 100 78 34 33 40 49 94 124 134 141 143 145 146 147 153 166 187 192 190 186 183 175 177 178 184 189 190 189 178 170 161
152 142 137 152 163 166 164 158 147 138 142 138 129 114 108 357 351 340 9 136 137 135 139 156 160 159 158 160 179 191 192 191 187 187 187 190 195 201 203 202 197 193 187
158 145 143 155 172 171 174 172 163 151 160 173 156 149 161 193 223 256 244 173 146 130 147 163 168 169 166 164 171 179 187 192 198 201 206 201 200 208 218 219 216 212 211
169 157 153 161 175 176 176 178 163 162 162 173 192 220 185 149 157 180 263 240 194 187 190 179 171 175 174 169 171 178 187 195 200 205 213 213 215 222 231 235 231 228 226
176 160 157 162 177 183 181 177 167 170 174 176 181 186 177 97 142 163 208 223 239 221 200 184 179 186 184 177 172 180 191 200 206 211 219 225 224 228 237 244 246 243 239
179 172 169 171 178 180 181 177 177 178 181 179 180 177 176 179 191 177 195 209 231 241 215 188 180 183 187 185 185 189 197 207 218 220 224 228 232 234 241 247 250 254 253
190 191 187 182 182 184 183 178 175 181 179 179 185 191 199 199 191 179 169 190 226 263 227 231 200 187 191 184 187 194 203 211 223 230 230 233 238 241 245 249 251 252 256
199 193 185 191 189 186 190 184 178 184 181 180 189 188 202 202 190 187 177 170 188 256 240 235 231 195 186 184 192 196 202 213 223 235 236 239 242 244 245 252 253 255 256
190 179 186 198 200 191 190 184 187 187 184 187 191 193 208 210 200 198 178 173 179 214 240 231 229 211 186 189 200 202 204 216 224 232 236 239 243 245 244 250 253 256 258
184 179 195 205 204 196 195 190 189 188 192 199 196 196 214 216 202 194 181 192 186 192 228 222 229 216 190 205 214 206 207 220 224 230 235 235 239 242 243 248 252 256 258
183 187 197 204 208 201 195 196 195 187 194 203 205 203 214 209 202 191 180 193 204 184 212 263 282 210 192 203 212 211 215 217 225 233 239 238 241 243 244 249 252 254 255
190 192 194 199 206 204 200 198 198 192 193 199 204 204 210 203 198 188 182 196 200 188 189 220 250 233 230 216 215 221 224 228 229 235 241 240 243 249 250 251 250 251 252
198 205 200 202 206 205 205 203 199 198 199 203 201 205 208 194 202 194 187 192 193 187 178 194 226 234 243 239 238 255 241 244 245 244 249 244 246 253 256 256 253 249 249
201 207 207 206 206 207 208 202 197 196 199 207 206 207 207 201 200 193 195 193 186 184 177 183 208 225 226 237 207 234 258 255 256 248 253 251 252 259 261 261 256 250 249
208 203 203 205 206 207 207 198 191 190 193 195 198 210 208 201 203 203 201 193 187 192 190 197 212 226 223 210 219 219 234 256 269 247 246 247 247 252 258 259 254 251 253
201 191 196 198 198 208 207 204 197 188 188 191 200 206 197 195 197 202 203 203 200 199 200 207 222 220 228 223 218 213 207 229 263 250 216 256 224 241 253 250 250 251 254
194 190 192 186 191 193 186 191 195 193 193 195 196 195 207 203 191 182 182 196 217 229 223 215 216 224 225 216 202 213 216 231 244 228 224 269 246 250 260 253 248 252 254
180 177 177 174 165 168 170 172 176 175 183 193 192 188 190 198 192 176 164 170 201 238 236 224 213 226 227 208 200 209 218 231 285 273 206 247 255 251 263 254 251 250 254
163 157 157 146 141 145 145 139 153 154 149 161 174 176 183 188 188 175 166 170 182 234 229 187 189 205 216 212 195 170 176 209 269 271 226 218 246 268 295 263 253 252 262
144 133 124 121 129 129 122 114 117 141 136 137 129 149 177 183 182 176 181 180 193 209 179 150 163 210 157 178 200 189 188 205 240 256 221 189 205 114 314 286 243 261 277
Height
1508 1509 1511 1512 1514 1517 1518 1520 1522 1524 1526 1528 1531 1533 1534 1536 1537 1538 1540 1541 1543 1544 1545 1547 1548 1549 1550 1551 1552 1552 1553 1554 1555 1555 1556 1556 1557 1557 1558 1558 1558 1558 1558
1505 1507 1508 1510 1512 1514 1516 1518 1520 1522 1524 1526 1529 1531 1532 1534 1536 1537 1538 1540 1541 1542 1544 1545 1547 1548 1549 1549 1550 1551 1552 1553 1553 1554 1554 1555 1556 1556 1557 1557 1557 1558 1558
1503 1504 1505 1507 1510 1512 1514 1516 1518 1520 1522 1524 1526 1529 1531 1532 1534 1535 1536 1538 1539 1541 1542 1543 1545 1546 1547 1548 1549 1550 1550 1551 1552 1553 1553 1554 1554 1555 1556 1556 1556 1556 1556
1501 1502 1504 1505 1508 1510 1512 1513 1516 1518 1520 1522 1524 1526 1528 1530 1531 1532 1534 1535 1537 1538 1540 1541 1543 1544 1545 1546 1547 1548 1549 1549 1550 1551 1552 1552 1553 1554 1554 1554 1555 1555 1555
1499 1500 1502 1503 1505 1507 1509 1511 1513 1515 1517 1519 1522 1524 1525 1527 1529 1530 1532 1533 1535 1536 1537 1539 1540 1542 1543 1544 1545 1546 1547 1548 1549 1550 1550 1551 1551 1552 1552 1553 1553 1553 1554
1496 1498 1500 1501 1503 1505 1507 1509 1511 1513 1515 1517 1519 1521 1523 1525 1527 1528 1529 1531 1533 1534 1535 1536 1538 1539 1540 1541 1543 1544 1545 1546 1546 1547 1548 1549 1550 1550 1550 1551 1551 1552 1552
1494 1496 1497 1499 1500 1502 1504 1506 1508 1510 1512 1514 1516 1519 1521 1523 1524 1526 1527 1529 1530 1532 1533 1534 1535 1536 1537 1539 1540 1542 1543 1544 1544 1545 1546 1547 1547 1548 1548 1549 1549 1549 1550
1491 1493 1494 1496 1498 1499 1501 1503 1505 1507 1509 1512 1514 1516 1518 1521 1522 1524 1525 1526 1527 1529 1530 1531 1532 1534 1535 1536 1537 1539 1540 1541 1542 1542 1543 1544 1545 1546 1546 1546 1547 1547 1547
1489 1490 1491 1493 1495 1497 1498 1500 1502 1504 1506 1509 1512 1514 1516 1516 1518 1520 1521 1523 1524 1526 1527 1528 1529 1531 1532 1533 1534 1536 1537 1538 1539 1540 1540 1541 1542 1543 1543 1544 1544 1545 1545
1486 1487 1489 1491 1492 1494 1496 1498 1500 1502 1504 1505 1508 1510 1513 1513 1515 1516 1519 1520 1521 1523 1524 1525 1526 1528 1529 1530 1531 1532 1534 1535 1536 1537 1537 1538 1539 1540 1540 1541 1541 1541 1541
1483 1484 1486 1488 1489 1491 1493 1495 1496 1499 1501 1502 1504 1506 1509 1510 1512 1513 1514 1516 1518 1519 1520 1522 1523 1524 1525 1526 1527 1529 1530 1531 1532 1533 1534 1535 1536 1536 1537 1537 1538 1538 1538
1480 1481 1483 1484 1486 1488 1490 1491 1493 1495 1497 1499 1501 1503 1505 1507 1508 1509 1511 1512 1514 1515 1517 1518 1519 1520 1522 1523 1524 1525 1526 1527 1528 1529 1530 1531 1532 1532 1533 1533 1534 1534 1534
1476 1478 1480 1481 1483 1485 1486 1488 1489 1491 1493 1495 1497 1499 1501 1503 1505 1506 1508 1509 1510 1511 1512 1513 1515 1516 1517 1519 1519 1521 1522 1523 1524 1525 1526 1527 1527 1528 1529 1529 1530 1530 1530
1473 1475 1477 1478 1479 1481 1483 1484 1486 1488 1489 1491 1493 1495 1497 1499 1501 1503 1504 1506 1507 1507 1508 1509 1510 1512 1513 1514 1515 1517 1518 1519 1520 1521 1522 1522 1523 1523 1524 1525 1525 1525 1525
1471 1472 1473 1475 1476 1478 1479 1481 1482 1484 1486 1487 1489 1491 1493 1495 1497 1498 1500 1502 1504 1503 1504 1505 1506 1508 1509 1510 1511 1512 1513 1514 1515 1516 1517 1518 1518 1518 1519 1520 1520 1520 1520
1468 1469 1470 1471 1473 1474 1476 1477 1479 1480 1482 1484 1486 1487 1489 1491 1492 1494 1495 1497 1499 1500 1500 1501 1502 1504 1505 1506 1507 1508 1508 1509 1510 1511 1512 1512 1513 1514 1514 1515 1515 1515 1515
1464 1465 1467 1468 1469 1470 1472 1473 1475 1476 1478 1479 1481 1483 1485 1486 1488 1489 1491 1493 1495 1496 1496 1497 1499 1500 1501 1501 1502 1503 1504 1504 1505 1506 1506 1507 1507 1508 1509 1509 1509 1509 1509
1461 1462 1463 1464 1465 1466 1468 1469 1471 1472 1473 1475 1476 1478 1480 1481 1483 1484 1486 1488 1490 1491 1492 1492 1494 1495 1496 1497 1498 1498 1499 1500 1500 1501 1501 1501 1502 1502 1503 1503 1503 1503 1503
1457 1458 1459 1460 1461 1462 1464 1465 1467 1468 1469 1471 1472 1473 1475 1476 1478 1479 1481 1483 1485 1486 1488 1489 1489 1491 1491 1492 1493 1494 1494 1495 1495 1496 1496 1496 1496 1497 1497 1497 1497 1497 1497
1454 1455 1456 1457 1458 1459 1460 1461 1463 1464 1465 1467 1468 1469 1470 1472 1473 1475 1477 1478 1480 1482 1483 1484 1485 1486 1487 1488 1488 1489 1489 1490 1490 1491 1491 1491 1491 1491 1491 1491 1491 1490 1490
1451 1451 1452 1453 1454 1455 1456 1458 1459 1460 1461 1463 1464 1465 1466 1468 1469 1471 1473 1474 1476 1477 1478 1479 1480 1481 1482 1483 1484 1484 1484 1485 1485 1486 1486 1486 1486 1486 1486 1485 1485 1484 1484
1447 1448 1448 1449 1451 1452 1453 1454 1455 1456 1457 1458 1459 1461 1462 1464 1465 1467 1468 1470 1472 1473 1474 1474 1475 1476 1477 1478 1479 1480 1480 1480 1480 1481 1481 1480 1481 1480 1480 1480 1479 1479 1479
1443 1444 1445 1446 1447 1448 1450 1451 1452 1453 1453 1454 1456 1457 1458 1460 1462 1463 1464 1465 1467 1468 1470 1471 1471 1471 1473 1474 1475 1475 1475 1476 1475 1476 1476 1475 1475 1475 1475 1474 1474 1474 1474
1440 1441 1442 1443 1444 1445 1446 1447 1448 1449 1450 1451 1452 1454 1455 1456 1458 1459 1460 1461 1462 1464 1465 1466 1467 1467 1469 1470 1470 1471 1471 1471 1471 1472 1472 1471 1470 1470 1470 1469 1469 1469 1469
1437 1438 1440 1440 1441 1442 1444 1444 1445 1446 1446 1448 1449 1451 1452 1453 1454 1456 1457 1458 1458 1459 1461 1461 1462 1463 1464 1465 1466 1467 1467 1467 1466 1466 1467 1467 1465 1465 1465 1464 1465 1464 1464
1436 1436 1437 1438 1439 1440 1441 1442 1443 1443 1444 1445 1446 1447 1449 1450 1451 1452 1453 1454 1454 1455 1457 1457 1458 1459 1460 1461 1462 1462 1463 1463 1462 1462 1462 1462 1461 1461 1460 1460 1460 1460 1460